This is the latest recevied weather packets stored in our database for station/object N1SU-13. If no packets are shown the sender has not sent any weather packets the latest 10 day(s).
| Time | Temp. | Humidity | Pressure | Rain* | Wind** | Luminosity | Snow |
|---|---|---|---|---|---|---|---|
| 1788377143 | 19.44° C | 59% | 1002.9 hPa | 0 mm | - | - | - |
| 1788376469 | 18.89° C | 60% | 1003 hPa | 0 mm | - | - | - |
| 1788375910 | 18.89° C | 60% | 1003.2 hPa | 0 mm | - | - | - |
| 1788375258 | 18.33° C | 63% | 1003.4 hPa | 0 mm | - | - | - |
| 1788374563 | 17.78° C | 63% | 1003.5 hPa | 0 mm | - | - | - |
| 1788373867 | 17.78° C | 63% | 1003.7 hPa | 0 mm | - | - | - |
| 1788373172 | 17.78° C | 63% | 1003.8 hPa | 0 mm | - | - | - |
| 1788372477 | 17.78° C | 64% | 1004 hPa | 0 mm | - | - | - |
| 1788371897 | 17.78° C | 64% | 1004.1 hPa | 0 mm | - | - | - |
| 1788371320 | 17.78° C | 63% | 1004.2 hPa | 0 mm | - | - | - |
| 1788370757 | 17.78° C | 66% | 1004.3 hPa | 0 mm | - | - | - |
| 1788370157 | 17.22° C | 68% | 1004.4 hPa | 0 mm | - | - | - |
| 1788369532 | 16.67° C | 69% | 1004.6 hPa | 0 mm | - | - | - |
| 1788368896 | 16.67° C | 71% | 1004.9 hPa | 0 mm | - | - | - |
| 1788368291 | 16.11° C | 71% | 1004.7 hPa | 0 mm | - | - | - |
| 1788367650 | 16.11° C | 71% | 1004.9 hPa | 0 mm | - | - | - |
| 1788367016 | 16.11° C | 71% | 1004.9 hPa | 0 mm | - | - | - |
| 1788366381 | 15.56° C | 74% | 1005.1 hPa | 0 mm | - | - | - |
| 1788365768 | 15° C | 74% | 1005.2 hPa | 0 mm | - | - | - |
| 1788365208 | 14.44° C | 75% | 1005.2 hPa | 0 mm | - | - | - |
| 1788364529 | 14.44° C | 77% | 1005.4 hPa | 0 mm | - | - | - |
| 1788363921 | 13.89° C | 82% | 1005.6 hPa | 0 mm | - | - | - |
| 1788363296 | 13.33° C | 84% | 1005.8 hPa | 0 mm | - | - | - |
| 1788362632 | 13.33° C | 85% | 1005.7 hPa | 0 mm | - | - | - |
| 1788361961 | 13.33° C | 85% | 1005.9 hPa | 0 mm | - | - | - |
* Rain latest hour (hover to see other rain measurements)
** Current wind speed in m/s (hover to see current wind gust speed)